Current Version              Previous Version:    01  02  03  04  05  06  07  08  09  10  11  12  13  14  15  16  17  18  19  20  21  22  23  24  25  26  27  28  29  30  
   31  32  33  34  35  36  37  38  39  40  41  42  43  44  45  46  47  48  49  50  51  52  53  54  55  56  57  58  59  60  

[Printable]
763
ASUS44 KEWX 210002
RWRTX
SOUTH TEXAS REGIONAL WEATHER ROUNDUP
NATIONAL WEATHER SERVICE AUSTIN/SAN ANTONIO TX
700 PM CDT MON OCT 20 2014

NOTE: "FAIR" INDICATED FEW OR NO CLOUDS BELOW 12,000 FEET WITH NO
SIGNIFICANT WEATHER AND/OR OBSTRUCTIONS TO VISIBILITY.

* - THESE STATIONS ARE NOT NWS OR FAA STATIONS...AND ARE NOT SUBJECT
    TO NWS AND FAA QUALITY CONTROL.

TXZ171-172-183>190-210100-
TEXAS HILL COUNTRY AND EDWARDS PLATEAU

CITY           SKY/WX    TMP DP  RH WIND       PRES   REMARKS
JUNCTION       PTCLDY    76  54  46 E8        30.01S
6HR MIN TEMP:  76; 6HR MAX TEMP:  81;

*LLANO         CLEAR     75  59  57 CALM      30.04R
BURNET         CLEAR     74  56  53 E3        30.04R
6HR MIN TEMP:  74; 6HR MAX TEMP:  82;

*HORSESHOE BAY CLEAR     74  57  55 CALM      30.01S
6HR MIN TEMP:  74; 6HR MAX TEMP:  82;

*KERRVILLE     PTCLDY    74  59  58 E3        30.02S
*FREDERICKSBRG CLEAR     72  57  59 SE3       30.02S
*ROCKSPRINGS   PTCLDY    73  54  49 E7        30.04S
*BOERNE STAGE  MOCLDY    73  54  49 E5        30.02S
*CASTROVILLE   MOCLDY    81  54  39 E7        29.99S
HONDO          PTCLDY    76  55  48 E10       29.99S
6HR MIN TEMP:  76; 6HR MAX TEMP:  81;

*UVALDE        PTCLDY    79  57  45 E6        29.98R
6HR MIN TEMP:  78; 6HR MAX TEMP:  82;

DEL RIO        PTCLDY    77  63  61 S3        29.95F
6HR MIN TEMP:  75; 6HR MAX TEMP:  80;

LAUGHLIN AFB   PTCLDY    77  62  60 S3        29.96S
6HR MIN TEMP:  76; 6HR MAX TEMP:  80;

CARRIZO SPRGS  CLOUDY    81  61  50 E7        29.93R
$$

TXZ173-191>194-202-209-217>225-228-210100-
CENTRAL AND SOUTH CENTRAL TEXAS

CITY           SKY/WX    TMP DP  RH WIND       PRES   REMARKS
GEORGETOWN     CLEAR     75  57  53 MISG      30.00S
AUSTIN/BERGSTM MOCLDY    75  59  57 E5        29.99S
6HR MIN TEMP:  74; 6HR MAX TEMP:  81;

AUSTIN/MABRY   PTCLDY    76  59  55 VRB3      30.01R
6HR MIN TEMP:  76; 6HR MAX TEMP:  82;

*AUSTIN/EXEC   PTCLDY    73  59  60 E5        30.01R
*LAGO VISTA    PTCLDY    73  57  57 E3        30.02S
6HR MIN TEMP:  73; 6HR MAX TEMP:  81;

SAN MARCOS     CLEAR     77  55  47 E7        30.00S
NEW BRAUNFELS  MOCLDY    78  57  48 E8        29.98R
6HR MIN TEMP:  78; 6HR MAX TEMP:  85;

RANDOLPH AFB   NOT AVBL
PT SAN ANTONIO NOT AVBL
SAN ANTONIO    MOCLDY    79  58  48 NE12      29.99R
6HR MIN TEMP:  79; 6HR MAX TEMP:  85;

STINSON FIELD  PTCLDY    80  57  45 E6        29.96R
6HR MIN TEMP:  80; 6HR MAX TEMP:  86;

*PLEASANTON    MOCLDY    79  58  47 E6        29.97R
6HR MIN TEMP:  79; 6HR MAX TEMP:  86;

*LA GRANGE     PTCLDY    76  64  65 CALM      29.98R
6HR MIN TEMP:  76; 6HR MAX TEMP:  83;

*GIDDINGS      PTCLDY    74  60  61 E5        30.03S
*GONZALES      PTCLDY    79  60  53 E3        29.98R
$$

TXZ163>164-176>182-195>201-210>213-226-227-235-210100-
SOUTHEAST TEXAS

CITY           SKY/WX    TMP DP  RH WIND       PRES   REMARKS
COLLEGE STN    PTCLDY    75  60  59 E6        30.00S
6HR MIN TEMP:  75; 6HR MAX TEMP:  81;

*BRYAN         PTCLDY    72  62  70 CALM      30.02R
6HR MIN TEMP:  72; 6HR MAX TEMP:  80;

*CALDWELL      PTCLDY    75  61  60 CALM      30.03S
*CROCKETT      PTCLDY    72  64  78 CALM      30.05S
*BRENHAM       PTCLDY    76  62  60 CALM      30.00S
HUNTSVILLE     CLEAR     73  60  63 CALM      30.01R
6HR MIN TEMP:  73; 6HR MAX TEMP:  81;

CONROE         CLEAR     68  62  81 CALM      30.01R
6HR MIN TEMP:  68; 6HR MAX TEMP:  81;

HOUSTON BUSH   PTCLDY    70  59  68 VRB5      29.99S
6HR MIN TEMP:  70; 6HR MAX TEMP:  83;

HOUSTON HOBBY  PTCLDY    75  63  66 E3        29.98S
6HR MIN TEMP:  75; 6HR MAX TEMP:  82;

*HOUSTON SW AP CLEAR     69  60  73 CALM      29.99R
6HR MIN TEMP:  69; 6HR MAX TEMP:  76;

PEARLAND       CLEAR     74  62  66 E5        30.00S
6HR MIN TEMP:  74; 6HR MAX TEMP:  82;

HOUSTON HOOKS  CLEAR     74  59  59 E5        30.00R
6HR MIN TEMP:  74; 6HR MAX TEMP:  82;

ELLINGTON FLD  NOT AVBL
SUGAR LAND     CLEAR     76  61  59 NE3       29.98S
6HR MIN TEMP:  75; 6HR MAX TEMP:  83;

*HOUSTON EXEC  CLEAR     72 N/A N/A NE5       30.00S
*CLEVELAND MUN NOT AVBL
*WHARTON       MOCLDY    76  60  56 NE5       29.98S
*COLUMBUS      FAIR      74  61  64 E3        29.98S
6HR MIN TEMP:  74; 6HR MAX TEMP:  82;

$$

TXZ214>216-236>238-210100-
THE UPPER TEXAS COAST

CITY           SKY/WX    TMP DP  RH WIND       PRES   REMARKS
*ORANGE        CLEAR     71  57  62 CALM      30.01R
6HR MIN TEMP:  71; 6HR MAX TEMP:  80;

PORT ARTHUR    CLEAR     72  57  59 N7        29.99R
6HR MIN TEMP:  72; 6HR MAX TEMP:  83;

GALVESTON      PTCLDY    75  66  73 NE8       29.99S
6HR MIN TEMP:  75; 6HR MAX TEMP:  81;

ANGLETON       PTCLDY    73  66  78 E5        29.98S
6HR MIN TEMP:  73; 6HR MAX TEMP:  82;

*BAY CITY        N/A     75  67  76 E6        29.98R
PALACIOS       MOCLDY    77  67  71 E10       29.97R
6HR MIN TEMP:  77; 6HR MAX TEMP:  85;

$$

TXZ229>234-239>247-210100-
TEXAS COASTAL BEND AND RIO GRANDE PLAINS

CITY           SKY/WX    TMP DP  RH WIND       PRES   REMARKS
VICTORIA       MOCLDY    76  63  64 NE7       29.97R
6HR MIN TEMP:  76; 6HR MAX TEMP:  86;

*BEEVILLE      CLOUDY    75  66  72 E5        29.96S
6HR MIN TEMP:  75; 6HR MAX TEMP:  81;

ROCKPORT       MOCLDY    77  70  79 E10       29.95S
6HR MIN TEMP:  77; 6HR MAX TEMP:  79; 6HR PCP: TRACE;

*PORT ARANSAS  MOCLDY    75  69  80 E15       29.95R
6HR MIN TEMP:  70; 6HR MAX TEMP:  78; 6HR PCP:  0.29;

*PORT LAVACA   MOCLDY    77  69  77 E10       29.97R
6HR MIN TEMP:  77; 6HR MAX TEMP:  85;

*INGLESIDE     MOCLDY    76  72  85 E8        29.95S
CORPUS CHRISTI MOCLDY    74  71  91 E5        29.95S
6HR MIN TEMP:  71; 6HR MAX TEMP:  75; 6HR PCP:  0.09;

CORPUS NAS     MOCLDY    74  72  93 E13       29.94F
6HR MIN TEMP:  71; 6HR MAX TEMP:  75; 6HR PCP:  0.60;

*ROBSTOWN      CLOUDY    75  72  88 NE5       29.95S
ALICE          CLOUDY    74  69  85 MISG      29.95S
6HR MIN TEMP:  74; 6HR MAX TEMP:  85;

KINGSVILLE NAS MOCLDY    75  72  90 NE9       29.95R
6HR MIN TEMP:  75; 6HR MAX TEMP:  84; 6HR PCP:  0.04;

COTULLA        MOCLDY    82  61  48 E8        29.95R
6HR MIN TEMP:  82; 6HR MAX TEMP:  88;

*FAITH RANCH   MOCLDY    82  61  47 E7        29.94S
LAREDO         MOCLDY    79  67  66 E10       29.96R
6HR MIN TEMP:  77; 6HR MAX TEMP:  87; 6HR PCP: TRACE;

$$

TXZ248>255-210100-
DEEP SOUTH TEXAS

CITY           SKY/WX    TMP DP  RH WIND       PRES   REMARKS
BROWNSVILLE    PTCLDY    80  68  66 NE9       29.90R
6HR MIN TEMP:  80; 6HR MAX TEMP:  89;

PORT ISABEL    CLEAR     80  68  66 NE9       29.90R
6HR MIN TEMP:  80; 6HR MAX TEMP:  85;

*SOUTH PADRE   PTCLDY    82  70  65 NE13      29.90R
HARLINGEN      MOCLDY    77  73  87 NE15      29.90R
6HR MIN TEMP:  77; 6HR MAX TEMP:  88; 6HR PCP:  0.01;

*HEBBRONVILLE  CLEAR     77  65  66 E10       29.96R
MCALLEN        CLOUDY    78  69  73 NE15G23   29.91R
6HR MIN TEMP:  78; 6HR MAX TEMP:  88; 6HR PCP:  0.04;

*WESLACO       CLOUDY    79  69  70 NE10      29.91R
6HR MIN TEMP:  79; 6HR MAX TEMP:  90;

FALFURRIAS     CLOUDY    76  65  68 E12       29.94R
6HR MIN TEMP:  76; 6HR MAX TEMP:  83;

EDINBURG       MOCLDY    76  69  79 NE9       29.93R
6HR MIN TEMP:  75; 6HR MAX TEMP:  88; 6HR PCP:  0.58;